Orbital Elements at Epoch 2459200.5 (2020-Dec-17.0) TDB
Reference: JPL 26 (heliocentric ecliptic J2000)
Element | Value | Uncertainty (1-sigma) | Units |
e | .1335103092573536 | 4.2347e-08 | |
a | 2.706537129884877 | 1.5838e-08 | au |
q | 2.345186520657436 | 1.1316e-07 | au |
i | 11.43443186657176 | 4.8957e-06 | deg |
node | 290.7874403250215 | 2.0681e-05 | deg |
peri | 49.765020511883 | 2.6829e-05 | deg |
M | 199.9382749662655 | 1.789e-05 | deg |
tp | 2459923.610059565765 (2022-Dec-10.11005957) | 8.3124e-05 | TDB |
period | 1626.370210547277 4.45 | 1.4275e-05 3.908e-08 | d yr |
n | .221351816250286 | 1.9429e-09 | deg/d |
Q | 3.067887739112317 | 1.7952e-08 | au |
|
| | Orbit Determination Parameters
Additional Information
|